Wind_Speed
23 24 24 24 24 24 24 24 24 23 23 23 23 24 24 25 27 29 31 33 35 35 35 34 34 34 34 34 35 35 35 36 39 42 46 43 38 39 41 41 42 42 42 42 41 39 37 36 33 31 31 31 32 31 30 29 26 25 25 27 32 32 31 30 28 27 26 25 21 21 25 23 16 11 4 6 13 16 22 24 17 13 12 14 16 14 14 16
23 23 24 25 25 25 25 25 25 25 25 24 24 24 24 25 25 26 27 29 31 33 34 34 34 34 34 34 34 34 34 35 37 41 42 37 36 39 39 37 36 36 38 39 38 36 34 32 30 28 29 30 31 29 29 29 27 29 29 31 36 34 33 32 30 28 25 24 23 26 28 18 11 11 4 3 8 11 18 21 19 17 14 14 15 15 15 16
21 22 23 23 24 25 26 26 26 26 26 26 25 25 25 25 25 25 25 25 27 28 30 32 33 34 34 33 33 33 33 34 36 37 35 32 35 38 36 35 33 32 33 34 34 33 31 28 26 26 27 28 28 27 28 28 28 30 31 33 36 33 31 29 28 27 24 24 26 27 25 17 15 14 11 7 9 16 22 19 17 18 17 17 16 17 18 19
19 20 21 21 22 23 24 25 25 26 26 26 26 26 26 26 26 26 26 25 25 25 25 26 29 32 33 33 33 32 32 33 34 33 30 31 34 35 34 34 32 31 31 30 31 32 30 27 27 25 26 28 27 26 28 28 29 30 33 36 34 29 29 27 23 21 20 24 30 27 14 9 10 10 12 11 12 20 23 19 18 20 20 19 19 20 22 24
20 20 20 21 21 22 22 23 24 24 25 25 25 26 26 26 26 26 26 26 25 24 23 22 24 28 31 33 33 32 31 29 31 32 29 29 31 33 33 32 32 32 31 30 31 31 30 30 30 27 26 27 27 27 28 27 27 29 32 33 30 27 27 23 17 17 18 22 29 31 19 11 7 5 9 12 12 18 20 20 19 18 19 20 21 22 24 25
22 21 21 21 21 21 22 22 23 23 24 24 24 25 25 25 26 26 26 26 26 25 24 22 21 24 27 30 32 32 30 25 26 28 28 27 28 30 32 31 31 31 31 32 32 31 31 31 32 31 28 27 28 29 27 25 25 28 29 29 26 26 28 22 18 21 22 23 25 28 23 15 11 8 12 17 14 15 18 19 16 13 16 19 22 24 24 24
22 21 20 20 20 21 21 21 22 23 23 23 24 24 24 24 24 25 25 25 26 26 25 23 21 23 24 27 30 32 32 28 25 24 24 26 27 28 30 30 31 32 32 32 33 33 32 32 33 33 29 28 29 28 25 23 24 27 27 27 24 23 24 21 22 26 24 24 22 22 22 18 14 11 18 25 19 14 18 20 16 13 13 16 20 23 23 24
22 21 20 19 19 19 19 20 21 21 22 22 23 23 23 23 23 24 24 25 25 25 25 23 23 22 22 25 27 32 36 31 27 25 22 22 24 27 29 29 30 32 32 33 33 33 32 33 33 32 30 29 28 27 25 22 24 28 27 26 24 22 21 19 21 24 25 27 26 24 25 25 20 17 24 28 20 16 19 21 19 16 15 16 20 22 22 23
21 20 20 19 19 18 18 19 19 20 20 21 22 22 22 22 23 24 24 24 25 25 24 24 24 23 24 25 25 34 34 25 26 30 28 26 25 26 27 28 29 31 32 32 33 33 34 34 33 32 30 26 25 25 25 25 27 28 27 26 25 24 20 20 20 20 24 27 27 28 27 28 25 21 24 24 20 19 19 17 17 16 16 16 19 19 17 19
20 19 19 19 19 19 19 19 19 20 20 20 21 21 22 22 22 23 23 24 24 24 24 24 24 23 25 25 28 33 25 23 30 32 32 34 31 25 23 26 28 30 31 32 34 35 35 34 33 31 27 23 22 24 24 27 29 25 25 26 26 26 23 23 23 21 25 25 24 28 26 24 22 18 20 22 22 22 20 16 14 14 15 16 19 19 19 21
20 19 19 19 20 20 20 20 21 21 21 21 21 21 21 22 22 22 23 23 24 24 23 24 24 25 26 27 32 27 18 27 35 32 34 37 33 27 23 24 28 30 31 33 35 35 35 34 33 28 24 24 23 22 25 26 26 24 24 26 26 25 24 27 26 22 23 22 20 22 22 19 16 16 19 22 23 23 22 20 19 20 19 18 17 17 17 14
22 20 19 19 20 20 21 22 21 21 22 21 22 22 22 22 22 22 22 23 23 23 23 24 25 26 26 31 36 21 15 28 34 33 37 35 30 29 27 26 29 31 31 32 35 34 34 33 33 30 23 23 23 21 24 26 26 25 24 27 27 25 25 28 29 23 21 19 13 12 17 18 16 15 19 25 28 27 26 25 24 24 23 22 20 17 17 14
22 22 21 20 20 20 21 21 21 21 21 21 21 21 22 22 22 22 21 21 22 22 23 24 25 27 29 36 34 20 18 26 31 34 36 32 28 28 29 28 29 32 33 33 34 34 34 33 35 33 25 21 24 22 20 22 27 28 25 27 30 28 29 29 28 25 23 24 16 12 17 19 17 19 22 27 31 31 30 27 24 25 27 27 25 21 19 15
23 23 23 22 21 21 20 20 20 19 19 19 19 19 20 21 22 22 20 20 20 21 22 23 25 27 32 36 29 20 24 27 32 36 33 30 29 27 29 31 30 32 35 35 34 33 34 34 34 33 29 25 25 22 18 19 25 29 26 28 31 31 31 28 27 26 24 26 22 19 21 19 18 23 25 25 28 30 27 24 22 24 26 26 24 21 18 15
23 24 24 23 22 20 19 19 18 18 18 18 17 18 19 19 20 20 20 18 18 20 21 23 24 27 34 35 24 21 27 31 35 34 29 29 28 28 29 29 28 29 33 35 35 34 34 34 34 35 33 28 25 23 23 21 23 27 27 31 32 33 32 26 27 27 25 24 22 22 25 22 21 23 24 25 28 27 23 21 19 21 23 22 22 19 15 15
23 24 24 23 22 20 19 18 18 18 17 17 17 17 17 18 18 18 18 17 17 18 19 21 22 26 33 28 20 23 29 30 30 27 27 30 28 27 28 28 27 25 28 33 36 36 35 35 35 34 32 28 27 26 24 23 26 27 29 33 31 31 33 28 27 28 27 26 23 24 25 23 25 25 23 25 27 24 20 20 19 19 20 19 20 18 15 16
23 24 23 22 21 20 19 19 19 19 19 19 18 18 17 17 17 16 17 16 17 17 17 19 20 27 30 18 12 17 22 21 21 22 26 31 29 25 27 28 27 25 25 28 33 37 36 35 34 31 30 30 29 26 24 27 31 30 30 32 30 26 27 26 27 28 28 30 28 27 26 24 26 27 25 24 24 22 21 21 20 21 20 18 18 17 16 18
22 23 22 20 19 19 19 19 20 20 21 21 21 21 19 18 17 16 16 16 17 17 19 18 18 24 20 11 9 8 14 17 18 21 24 29 30 26 27 29 27 25 24 27 32 36 37 35 31 28 30 32 32 30 32 34 34 32 30 30 30 26 25 26 27 27 28 33 32 28 29 31 27 24 23 22 21 21 22 21 21 21 20 19 19 17 15 17
21 21 19 18 18 18 19 19 20 20 21 21 22 22 20 19 17 13 13 15 17 18 18 16 19 21 9 9 12 8 12 16 14 18 23 27 30 28 28 29 28 23 22 27 31 36 37 33 29 30 36 40 40 38 37 35 28 27 29 28 28 29 28 28 28 25 25 32 35 29 31 36 33 25 21 19 18 20 21 20 20 20 20 19 19 18 15 15
19 19 18 16 17 18 18 19 19 19 20 20 20 19 18 17 13 9 10 15 16 16 17 16 21 22 13 16 20 16 12 10 11 18 22 25 27 27 28 29 28 23 21 27 29 34 35 30 32 39 44 45 42 36 33 31 24 22 26 27 26 29 31 29 28 26 25 31 36 32 30 35 34 27 21 18 16 18 19 18 19 19 18 18 18 18 17 17
19 19 18 16 16 17 18 18 18 18 18 17 16 16 15 14 10 9 12 17 17 15 17 18 20 22 17 21 23 20 15 11 14 20 24 26 24 25 30 32 31 27 26 26 24 30 33 34 42 46 44 41 37 34 30 29 28 23 25 29 27 29 31 29 28 27 26 31 35 33 31 31 29 26 22 21 18 17 16 15 17 16 16 17 18 19 21 21
20 20 19 17 16 16 17 17 17 17 15 15 16 16 15 14 11 11 15 21 21 17 18 17 20 22 20 24 24 20 16 14 14 19 27 30 26 26 30 35 35 31 28 26 24 29 36 44 50 43 37 34 30 31 31 30 30 27 26 28 29 31 29 27 30 29 27 31 34 34 33 27 23 23 22 21 19 15 14 13 13 14 17 20 21 22 24 23
20 21 19 16 15 16 16 16 16 15 16 16 17 16 16 13 11 11 14 22 25 21 21 20 20 21 20 27 26 21 20 19 14 17 26 31 31 28 29 36 36 29 28 31 32 35 43 51 49 36 30 30 27 29 32 30 29 31 30 28 29 30 29 28 28 28 29 34 37 37 34 24 20 21 21 20 18 15 14 14 13 14 17 20 23 23 24 25
20 19 18 16 15 17 16 15 15 15 17 16 15 14 15 13 9 9 13 21 28 25 23 23 23 23 21 26 26 22 23 24 18 18 25 30 32 29 29 35 33 27 29 34 35 39 44 44 40 31 26 29 29 29 34 33 30 33 34 32 29 28 28 26 25 24 26 29 35 39 28 20 23 23 21 21 18 16 14 14 15 17 18 19 22 23 23 24
18 17 15 16 16 18 16 15 14 15 15 13 12 12 11 12 9 9 13 18 26 26 20 21 25 26 21 24 29 25 22 26 26 25 29 29 30 32 29 31 33 29 30 33 34 39 37 31 31 30 26 30 32 32 36 35 32 33 36 37 32 28 25 24 24 21 28 26 30 35 18 11 20 22 20 21 19 17 15 15 18 19 19 21 22 24 24 23
16 15 15 16 17 18 16 15 15 14 14 11 11 11 9 11 9 9 13 15 25 29 21 21 22 22 21 24 33 27 20 29 31 30 34 30 28 32 29 27 34 33 29 29 31 35 32 25 28 31 29 31 33 34 36 34 33 35 38 37 33 32 28 27 27 21 27 26 27 30 16 9 17 19 19 20 18 18 17 18 21 21 20 21 21 22 21 21
16 15 16 16 17 18 16 14 14 12 11 10 10 10 9 10 9 8 9 10 17 21 16 22 21 17 17 20 31 32 23 25 28 32 38 34 29 31 28 26 32 34 29 26 29 33 31 27 29 32 32 33 36 38 36 33 34 36 38 35 32 34 31 29 27 19 22 30 26 26 22 14 18 22 20 20 19 19 20 21 22 22 22 22 20 18 18 19
17 17 17 16 17 19 16 12 10 9 9 10 10 11 11 10 7 5 4 4 7 9 5 17 20 13 11 13 27 38 28 13 17 33 39 36 32 31 31 29 29 32 30 27 30 33 32 31 31 33 35 35 38 40 36 33 35 36 35 33 31 30 29 29 25 18 19 30 27 28 25 13 16 23 21 20 22 20 21 23 24 25 24 22 20 18 18 20
18 18 17 16 17 18 14 10 9 8 9 9 10 11 10 9 7 6 4 3 3 7 5 11 18 13 11 15 22 31 30 13 7 23 35 37 34 31 32 30 25 27 29 28 29 27 29 33 30 31 36 37 36 36 36 35 35 33 31 30 28 25 27 27 21 19 18 24 24 30 27 11 10 23 26 24 25 24 23 24 25 26 24 22 21 19 19 21
19 18 15 15 16 14 11 9 9 9 9 8 8 8 6 6 7 7 5 5 3 8 5 10 19 14 12 19 21 22 27 20 10 15 32 39 35 31 31 31 25 24 26 28 27 23 26 31 29 30 34 36 33 32 35 35 30 30 31 30 28 27 28 24 22 23 14 11 20 29 29 16 8 20 30 25 22 23 22 25 26 26 25 23 22 21 22 23
19 17 15 15 14 12 10 9 8 8 9 8 6 5 4 8 8 5 3 5 7 8 1 12 14 12 14 20 22 20 25 24 15 17 33 38 34 31 31 31 29 25 25 28 28 25 26 29 32 32 31 33 31 29 33 35 30 28 30 32 27 25 26 22 23 23 8 4 19 27 26 22 13 19 27 22 18 18 20 23 24 26 28 25 24 24 24 24
18 16 14 13 13 12 10 8 8 9 9 7 5 2 4 6 6 9 9 6 7 8 3 5 7 6 12 19 21 21 27 27 19 20 33 38 35 33 36 35 33 26 24 30 31 29 31 33 34 31 30 32 32 30 32 35 35 30 31 34 21 11 14 13 12 10 2 2 17 27 25 20 18 22 25 20 16 17 18 17 18 23 27 26 26 25 24 25
17 16 13 12 12 12 10 8 7 9 8 6 3 3 6 3 4 12 15 10 8 9 11 9 6 6 7 15 22 21 25 27 20 21 32 37 35 35 38 37 34 27 22 29 33 30 29 31 34 33 31 33 34 33 34 38 39 35 35 35 18 5 5 6 4 2 2 1 10 23 20 11 15 21 26 24 18 16 16 14 16 23 25 25 26 26 25 26
17 16 14 13 12 10 8 7 7 8 7 4 4 6 7 5 6 8 12 12 11 15 18 18 13 11 7 13 21 21 25 25 19 22 30 34 32 34 38 35 30 26 20 24 30 27 19 20 33 37 31 34 38 35 35 37 36 35 38 34 20 10 5 4 3 2 4 2 5 13 10 7 10 10 17 24 18 16 16 15 19 23 24 24 25 26 27 27
16 16 14 12 11 9 6 6 6 6 4 2 5 7 9 10 9 8 10 10 13 18 19 20 18 14 12 14 19 22 25 23 21 25 28 31 32 35 40 36 31 29 23 20 25 27 20 17 30 36 28 31 40 37 33 31 29 31 37 34 25 20 12 6 4 4 5 3 5 9 5 6 8 4 12 21 19 20 19 17 21 24 25 26 27 27 27 28
16 15 13 11 10 8 4 5 6 5 4 2 6 10 13 11 9 11 12 11 14 17 19 20 13 11 14 14 19 23 25 22 21 25 27 29 31 34 39 36 34 33 27 22 23 25 21 18 27 34 28 29 35 37 34 28 25 28 33 35 30 24 17 9 5 6 5 2 5 9 8 12 13 10 16 24 22 22 20 18 22 24 26 28 28 29 28 29
17 13 11 11 11 8 6 5 6 7 6 5 9 12 13 11 10 14 16 16 18 18 18 17 4 8 12 13 19 24 26 22 20 23 26 27 27 31 37 36 37 36 26 22 23 24 22 18 26 35 33 31 34 36 36 30 24 25 30 32 27 21 20 15 7 6 5 2 3 10 17 20 17 16 21 26 23 23 21 21 24 25 28 30 29 29 28 26
18 13 9 10 10 8 8 6 6 8 7 9 15 15 13 12 11 13 16 17 19 16 14 13 4 9 11 10 18 26 27 23 22 24 26 26 24 28 36 37 37 34 27 22 21 23 23 16 22 36 34 31 32 33 34 32 25 23 26 27 23 18 17 15 9 5 6 3 3 7 19 21 19 23 30 28 24 25 24 23 25 27 29 30 29 28 27 25
18 14 9 10 10 8 8 7 6 8 10 13 17 15 12 13 12 12 15 16 17 15 12 11 5 8 11 8 10 22 26 22 23 25 25 25 24 26 35 39 35 32 33 28 19 22 25 12 13 31 34 28 27 26 28 30 26 23 22 24 26 20 14 14 13 9 7 4 1 4 10 13 19 25 29 29 27 27 26 23 23 26 29 29 30 30 29 27
18 15 11 11 11 8 8 7 6 10 13 15 17 16 15 16 15 15 13 11 11 11 10 9 6 7 11 9 6 13 23 22 22 24 22 23 23 24 34 41 37 33 35 29 20 21 26 15 8 24 31 26 27 30 32 30 27 26 23 25 31 27 15 11 16 17 13 6 3 3 2 7 19 26 26 26 27 25 25 23 22 25 27 28 28 29 30 29
17 16 13 11 10 9 9 8 9 12 16 18 18 17 17 17 17 16 13 8 7 8 10 10 7 9 10 10 6 8 17 22 23 23 20 23 25 25 34 42 39 32 27 27 26 21 23 17 11 22 29 30 34 40 41 34 25 28 27 24 32 34 22 8 9 18 18 10 7 8 3 3 15 26 27 23 23 25 24 21 20 24 26 26 26 26 26 27
17 16 13 11 10 11 12 12 13 14 18 19 19 18 19 19 19 16 13 10 7 7 11 10 6 7 10 11 7 3 7 14 23 24 18 23 26 23 34 44 39 30 23 24 27 22 19 16 17 23 28 32 35 38 42 36 23 26 30 24 26 36 32 13 5 15 19 12 13 14 7 3 11 25 31 26 23 25 23 20 19 22 25 25 24 23 23 23
19 17 15 12 12 12 14 17 18 19 20 19 17 18 18 18 19 16 10 8 8 7 9 8 6 6 10 9 6 3 4 8 19 26 17 20 25 21 33 44 38 29 23 21 24 23 17 15 21 25 23 26 29 28 36 37 24 23 28 25 24 32 36 24 10 15 21 15 13 12 5 5 13 21 29 28 26 25 23 20 19 20 24 22 20 21 21 21
21 19 16 14 13 12 14 17 19 20 21 20 19 19 18 18 20 17 12 9 6 5 8 8 7 8 9 9 9 7 5 8 14 24 17 19 23 19 30 44 37 28 24 21 23 24 16 11 18 20 12 13 18 18 27 37 32 24 24 27 25 23 28 30 19 13 15 16 15 8 2 10 20 22 25 25 25 26 24 20 18 19 21 20 18 20 20 21
24 21 19 17 17 17 15 16 18 18 18 17 18 17 16 17 17 17 16 13 9 7 9 10 7 7 8 9 11 10 7 7 13 19 16 18 21 17 27 42 36 28 24 20 22 23 16 12 15 13 7 7 10 10 23 39 36 24 21 29 29 20 20 28 25 14 7 12 15 5 4 18 25 23 26 25 24 28 26 21 19 18 19 19 19 20 20 21
27 24 22 20 19 19 19 19 19 19 17 15 16 15 12 11 11 12 15 14 10 9 10 10 8 8 9 9 7 9 8 9 12 15 15 19 21 18 26 38 33 26 24 20 21 20 16 16 18 16 13 15 18 16 23 35 33 23 21 27 29 25 19 20 21 16 8 10 11 5 8 21 24 23 28 28 25 28 28 24 22 21 20 20 20 21 21 21
30 26 24 24 21 20 23 23 20 19 16 15 16 15 11 10 9 9 11 10 7 5 8 10 10 11 11 7 4 6 8 10 11 15 16 17 20 19 27 36 31 25 23 20 21 19 14 16 21 20 14 15 22 23 21 28 32 27 23 23 25 25 23 19 16 13 11 9 7 8 14 23 25 25 28 27 24 26 27 25 23 23 23 22 20 21 22 22
31 29 28 28 26 26 27 25 20 16 12 11 13 12 10 9 9 6 3 3 4 3 5 8 10 12 10 6 2 4 7 8 9 16 17 16 21 21 26 35 32 25 23 22 20 16 13 15 18 20 16 12 18 22 22 27 32 31 26 21 21 25 27 25 17 11 13 12 8 12 14 20 25 25 25 27 26 26 25 23 22 21 21 20 19 20 21 22
32 32 31 30 31 32 31 28 23 15 8 7 9 9 8 7 5 7 8 5 5 6 7 8 12 13 10 3 6 6 4 7 5 18 18 15 21 19 20 32 33 25 24 25 21 13 12 15 15 16 18 16 16 18 22 28 30 31 31 25 19 23 28 29 23 16 14 16 13 9 7 14 23 21 21 24 26 26 25 22 21 19 18 17 16 17 20 20
33 33 32 30 32 35 33 31 25 14 7 6 7 6 4 1 6 10 12 9 7 7 9 11 13 13 8 4 6 6 4 6 6 20 20 17 21 17 15 26 31 24 22 24 21 14 10 13 15 15 15 18 18 12 13 27 32 29 32 29 20 22 27 29 27 21 15 15 16 11 8 15 21 17 18 23 23 24 24 22 22 19 16 16 15 15 17 17
31 31 31 30 31 33 33 31 25 18 14 12 8 6 4 3 7 9 8 7 6 6 11 13 13 12 8 8 9 5 3 6 10 18 21 20 23 17 13 18 25 25 23 23 22 18 13 10 13 16 13 18 17 8 6 17 31 29 31 33 26 23 26 27 28 25 18 12 13 15 14 17 21 20 21 24 23 22 23 24 22 19 17 16 15 15 16 16
30 30 30 29 28 30 34 34 29 26 20 10 6 5 4 5 7 7 2 4 7 8 13 14 13 14 8 6 8 7 5 10 13 18 22 22 21 16 10 12 21 27 27 22 20 20 16 11 10 12 12 13 13 9 11 2 17 17 22 30 29 26 23 22 25 27 22 13 12 16 15 13 19 24 25 26 26 24 24 23 20 19 18 17 15 14 13 13
Wind_Direction
280 279 279 278 277 275 275 273 272 270 268 266 265 265 264 263 260 258 256 254 253 252 251 250 249 247 245 246 247 247 246 245 244 244 245 244 241 241 240 239 240 241 241 242 244 245 245 246 246 245 244 244 244 245 245 243 238 230 224 228 237 237 240 248 252 252 256 262 268 271 271 271 255 231 239 253 257 259 262 266 264 250 220 230 242 240 256 255
282 280 279 279 278 277 276 275 274 272 271 269 267 265 264 264 263 261 259 257 255 253 251 250 249 248 245 245 245 246 246 246 245 245 246 245 241 241 240 238 238 239 239 239 239 240 241 241 241 239 239 240 240 239 237 237 232 224 220 226 237 241 248 254 256 255 254 255 259 262 263 258 220 197 178 241 254 263 259 256 258 252 232 227 233 244 256 255
287 284 282 280 279 278 277 276 275 273 272 271 270 268 265 264 263 263 262 260 257 255 253 252 250 249 246 244 244 244 244 245 246 246 246 244 241 240 239 236 234 234 235 235 234 233 232 230 230 230 231 232 233 232 229 229 227 224 220 223 234 243 251 254 253 250 247 252 255 258 258 244 233 220 210 242 279 279 268 260 260 262 251 240 246 255 257 259
292 289 286 283 281 279 278 278 276 275 274 272 271 270 268 266 264 263 263 261 260 258 255 254 252 250 247 245 243 243 243 245 246 245 243 241 239 238 236 234 230 227 227 227 227 227 223 218 216 216 221 224 224 224 223 223 222 223 222 226 234 241 247 251 250 249 249 251 250 252 242 208 229 227 230 259 277 271 268 268 273 273 264 255 259 263 262 261
296 292 289 286 284 282 280 279 278 277 276 274 272 270 269 268 266 264 263 262 261 259 256 254 252 251 247 245 243 241 241 244 246 244 240 238 237 236 233 230 227 224 221 218 220 220 216 213 209 205 210 216 216 216 218 218 219 222 224 233 240 237 241 246 241 242 250 251 249 249 233 192 192 211 252 268 260 260 266 274 278 273 268 266 265 266 266 259
299 295 292 288 286 283 282 280 279 278 277 276 275 273 271 270 269 267 265 263 261 260 257 253 252 251 249 245 242 239 236 238 241 241 238 235 235 235 232 228 224 222 219 215 215 212 211 210 209 206 205 208 210 212 216 213 215 222 223 230 238 237 239 240 231 231 245 259 253 240 226 205 206 229 261 268 261 258 267 276 280 274 268 267 266 264 264 256
303 299 295 291 288 285 283 281 280 279 278 278 276 275 274 272 271 269 267 265 263 260 257 254 250 250 249 245 241 238 232 229 232 234 233 232 232 232 231 227 222 219 217 214 212 209 206 207 210 210 206 206 207 210 213 207 212 222 223 224 232 242 243 236 230 229 239 262 256 233 227 226 236 264 272 273 274 262 263 270 274 277 270 264 261 259 258 249
306 303 299 295 291 288 286 284 283 282 281 280 279 279 277 276 274 272 270 267 265 262 259 255 251 248 247 246 242 237 231 226 226 227 226 227 229 228 227 224 221 219 216 212 210 207 204 205 207 207 204 206 208 206 203 203 213 222 223 223 229 239 245 245 240 235 244 258 258 250 244 242 252 276 274 272 276 267 262 265 268 273 271 263 256 254 255 247
307 305 303 300 296 293 290 289 288 287 286 285 284 283 281 280 277 274 271 269 267 263 260 256 252 248 245 244 243 240 232 220 225 229 224 219 219 221 220 218 217 217 215 210 207 204 203 203 203 200 199 204 210 208 198 200 215 221 224 226 231 233 236 246 248 247 252 254 255 259 256 247 251 265 266 266 267 264 262 262 265 266 261 253 241 237 231 218
310 307 305 302 299 297 295 293 291 291 292 290 290 288 286 283 280 277 274 271 268 265 262 258 253 249 246 242 242 243 229 209 222 227 223 219 213 211 214 214 213 214 213 208 205 204 202 201 199 195 194 197 208 216 207 204 212 219 225 229 234 237 230 227 237 247 249 251 257 260 261 254 246 246 252 257 259 259 258 249 240 236 228 218 217 216 208 200
314 310 307 303 301 298 297 296 294 294 293 293 293 291 289 286 283 280 276 273 270 267 264 259 255 250 246 242 240 239 219 214 220 220 223 225 218 210 207 210 211 211 211 207 204 203 202 199 193 188 192 196 200 215 218 210 209 217 227 231 233 240 235 220 226 244 242 247 261 258 258 254 237 233 249 258 253 247 243 231 225 232 231 226 229 232 231 228
316 314 310 306 302 300 298 297 296 295 292 291 290 290 290 288 286 282 278 276 272 269 264 261 257 252 247 243 239 229 212 223 223 218 223 226 223 216 209 206 208 208 208 207 205 202 200 197 190 185 188 196 197 207 219 215 210 216 225 233 234 236 240 225 222 238 238 239 255 253 246 242 233 234 247 249 242 240 239 233 237 247 252 254 256 256 255 257
318 315 313 310 306 302 299 296 295 293 291 289 286 286 285 285 285 283 281 277 273 271 266 261 257 254 250 243 238 225 214 222 222 222 223 223 221 218 213 209 207 206 204 204 204 201 198 196 193 187 179 192 201 203 212 212 212 219 225 233 238 236 236 230 226 235 236 233 239 244 238 233 233 238 238 236 238 240 239 238 247 259 264 264 258 257 259 257
318 316 315 312 309 306 302 298 295 292 291 289 286 284 282 283 283 283 283 279 275 270 265 262 257 256 253 246 239 228 220 219 221 223 224 224 219 213 213 211 208 207 203 200 199 200 197 194 196 191 181 187 197 202 206 206 213 223 228 230 235 237 233 227 228 234 233 231 235 237 238 233 229 235 232 226 232 235 236 243 253 262 267 265 258 256 256 248
319 317 316 314 311 307 303 301 298 295 291 289 288 286 285 284 284 284 283 281 276 269 264 262 259 259 256 250 243 230 222 221 224 225 222 223 219 212 212 211 210 210 208 202 195 196 196 193 195 194 188 186 192 205 211 213 220 224 225 226 228 234 234 228 227 229 229 228 228 227 231 233 227 233 232 217 218 224 231 243 249 256 262 263 258 253 243 232
320 318 316 312 309 305 302 301 298 297 294 291 289 287 288 288 287 287 284 283 278 272 267 262 260 260 258 255 249 235 227 227 229 229 222 220 219 212 209 211 209 209 212 208 198 193 193 194 197 196 192 190 196 207 216 225 230 222 220 224 224 225 228 227 225 225 228 226 223 224 227 231 228 232 233 214 211 216 222 233 240 252 259 256 249 242 234 228
320 318 315 309 305 303 301 300 300 300 297 295 292 290 290 289 290 289 285 283 277 274 267 260 256 257 257 255 251 240 231 232 229 227 223 216 214 209 207 210 206 205 211 210 202 194 191 193 197 200 197 195 200 208 220 228 226 220 216 221 224 220 217 219 220 219 224 224 222 223 224 231 231 228 229 217 211 218 225 235 245 252 255 248 242 242 235 227
320 318 313 305 302 302 303 302 301 301 299 297 295 293 292 290 290 289 285 278 272 269 263 258 252 254 260 246 236 231 211 214 214 217 219 212 208 203 203 208 202 199 206 208 204 194 190 192 195 205 206 201 202 206 216 217 213 215 214 215 221 221 218 222 224 218 219 220 218 217 217 226 233 225 223 218 213 221 230 242 250 250 250 245 243 244 231 220
319 318 312 304 301 304 305 303 301 300 297 296 294 293 293 293 291 288 284 272 264 261 259 262 251 245 244 186 181 165 187 201 202 206 205 203 204 200 198 204 197 190 199 205 203 195 190 189 193 206 210 204 200 202 212 213 207 213 214 212 216 218 221 225 230 229 221 217 213 212 215 221 228 226 220 219 220 226 231 237 241 243 247 244 240 237 226 214
319 319 315 305 301 304 305 302 300 298 296 294 293 293 294 294 288 279 284 271 257 256 253 254 253 243 211 166 159 152 167 182 196 197 188 191 201 201 196 197 191 182 196 204 201 196 189 190 199 204 207 204 201 202 211 212 206 209 213 214 214 216 222 224 229 233 225 217 210 210 219 221 221 220 217 220 226 229 230 234 239 242 244 238 230 224 216 207
321 321 318 308 302 302 302 301 301 299 297 294 292 293 298 297 277 260 279 273 258 258 254 241 247 245 205 173 166 162 167 176 195 193 180 180 190 200 196 191 188 183 195 203 199 196 192 198 205 204 206 207 206 206 207 208 207 208 212 212 213 216 223 223 224 230 226 216 206 204 217 221 213 207 210 218 224 226 228 233 240 242 233 224 219 215 210 205
319 319 318 308 301 299 300 302 301 299 294 289 292 296 301 297 267 250 270 272 260 255 259 243 238 240 206 180 174 168 177 183 188 193 182 175 180 194 193 186 186 185 191 196 194 195 199 206 207 204 207 207 209 212 206 205 212 218 217 212 213 215 222 226 223 230 227 209 198 201 212 214 203 201 208 214 215 211 214 223 237 241 231 222 217 212 207 203
315 314 313 304 298 297 299 302 298 293 286 288 297 296 294 288 257 242 260 272 268 253 253 250 241 242 215 187 178 176 190 183 178 200 188 178 180 184 188 187 184 183 190 194 192 194 203 209 206 202 205 204 208 213 206 206 216 223 223 220 218 214 217 223 224 229 220 200 193 199 203 192 180 191 200 203 204 199 203 217 226 228 226 223 218 211 205 202
317 313 309 299 298 300 302 304 295 286 284 290 297 289 285 284 266 256 263 271 272 260 253 254 252 249 221 189 183 191 197 182 178 199 187 184 187 176 182 192 185 183 194 197 194 198 207 211 205 198 202 205 207 209 206 211 219 222 224 226 226 220 217 223 231 225 199 187 193 193 184 168 170 181 188 192 197 198 205 214 213 214 218 218 215 209 203 198
319 315 308 303 306 308 310 310 300 290 289 290 289 285 286 289 289 284 279 279 278 272 262 254 253 250 228 195 194 202 205 193 186 186 179 183 190 178 177 191 192 189 194 198 200 205 211 214 203 196 201 206 206 206 205 211 220 225 226 226 225 223 221 227 234 206 162 160 191 192 171 151 178 183 188 198 201 197 204 210 207 211 215 213 209 206 203 197
319 314 310 311 313 314 316 314 306 297 295 295 293 295 294 288 288 287 285 286 285 282 267 247 246 244 230 206 200 203 216 213 195 178 176 177 186 185 177 185 197 195 192 197 205 210 212 209 201 198 201 204 205 207 206 208 220 226 222 220 222 222 226 234 233 201 163 165 190 198 192 162 183 196 199 208 215 206 201 200 201 208 209 206 205 206 205 196
321 317 316 319 319 318 321 319 311 305 300 297 296 297 292 284 281 279 282 283 290 296 268 236 233 235 230 211 202 203 212 218 201 183 178 171 177 189 186 185 197 198 191 193 206 211 207 201 201 201 200 203 205 206 205 206 216 221 215 217 225 227 233 243 244 233 194 183 185 199 202 176 182 202 204 205 209 205 200 195 196 204 204 203 207 209 204 194
324 323 323 325 324 323 329 328 318 317 311 300 295 289 283 280 265 241 253 263 289 334 300 223 222 228 226 208 206 209 209 212 205 195 182 168 170 186 194 192 195 199 193 195 208 208 202 199 202 202 200 203 208 207 203 203 213 219 217 222 230 232 242 248 256 265 210 183 182 194 198 184 180 193 197 199 201 204 208 204 201 208 207 203 206 208 201 192
325 325 327 328 329 331 335 329 320 324 317 310 302 287 278 273 246 193 195 246 277 351 355 211 208 202 198 207 213 215 212 200 196 200 184 170 169 181 194 193 192 201 198 201 213 209 202 201 200 203 203 206 209 207 202 203 212 219 218 224 230 236 246 247 254 264 222 187 185 186 188 184 166 181 187 193 205 218 222 214 213 218 213 206 208 207 199 194
326 327 329 330 332 336 336 325 321 321 317 321 310 294 284 246 210 180 204 251 311 351 15 179 195 192 185 203 211 214 209 188 153 184 183 174 170 176 188 190 190 203 205 207 215 214 207 203 201 206 208 207 207 207 206 206 212 217 216 221 233 240 244 244 247 251 243 202 193 186 191 200 164 180 194 204 222 232 226 216 218 219 211 206 207 200 193 193
329 329 328 331 333 333 331 327 321 315 317 326 316 297 260 208 196 183 219 269 300 319 59 162 183 197 193 199 206 205 197 180 159 178 184 177 176 180 186 191 196 206 214 214 214 213 209 203 203 208 209 206 204 206 209 206 204 210 215 221 231 235 233 238 244 240 247 238 205 190 194 204 189 189 205 221 239 242 233 225 226 219 208 204 202 193 187 192
333 332 326 327 332 329 326 328 325 316 311 316 316 282 194 191 218 233 241 283 310 312 297 174 174 203 209 204 205 202 192 183 173 187 190 182 183 185 183 189 196 199 208 210 207 209 209 205 203 205 206 203 202 204 206 205 206 212 219 221 222 219 216 226 241 227 186 239 199 185 184 196 203 210 219 228 227 230 233 232 237 225 210 204 201 194 190 193
336 335 327 320 326 328 324 324 328 323 311 297 286 200 178 187 254 243 251 279 317 327 318 297 246 223 226 211 210 209 199 189 176 190 195 185 185 188 183 186 192 193 200 201 201 206 209 205 202 204 204 199 200 203 202 206 212 214 216 218 212 177 182 204 223 193 127 83 173 181 185 196 212 219 228 228 217 217 219 214 226 224 211 205 203 198 194 193
333 333 328 320 321 326 329 333 331 328 319 274 224 187 186 227 248 256 273 278 294 305 304 308 286 241 216 206 211 210 202 193 181 188 191 185 188 193 189 188 190 197 201 198 200 203 203 200 198 202 204 196 198 204 202 205 212 212 213 216 218 218 199 175 189 152 148 151 169 181 186 212 217 212 219 219 206 197 202 201 208 210 206 204 202 199 196 195
330 330 327 321 318 320 336 351 336 325 323 243 208 200 212 238 252 277 297 285 292 298 293 307 304 257 220 199 204 204 198 192 181 183 186 186 191 194 194 193 190 196 198 195 199 200 207 211 195 197 201 193 196 201 202 207 208 205 209 215 221 226 217 188 196 185 157 159 200 188 166 187 193 156 190 199 189 185 191 195 200 202 203 204 201 199 197 198
329 329 326 317 312 308 316 341 331 312 317 271 226 232 239 249 273 288 296 296 300 306 307 314 306 244 230 209 198 199 192 181 174 179 185 189 193 195 197 196 189 188 188 192 197 193 202 212 192 192 200 198 199 200 201 205 200 197 207 216 220 220 215 203 193 198 177 122 194 181 123 125 138 133 172 181 177 179 183 188 198 204 205 204 203 202 202 202
329 328 325 315 303 294 293 312 307 292 301 278 249 258 265 265 277 281 284 287 289 298 312 320 307 204 234 219 197 193 187 182 182 181 184 191 198 198 198 197 190 187 185 190 198 194 194 202 196 196 201 203 203 202 204 204 195 198 210 215 216 213 213 211 185 174 169 121 217 176 141 141 143 140 161 172 173 176 180 187 197 204 206 207 208 208 208 207
326 323 324 318 304 291 290 296 296 284 280 271 264 271 283 280 276 281 283 282 284 287 297 309 286 198 228 215 189 190 192 196 194 182 180 190 200 198 197 198 195 193 191 189 197 199 198 202 196 195 199 201 197 196 201 199 192 201 211 210 206 202 209 211 193 163 156 148 286 175 157 165 171 162 167 179 181 176 180 191 198 203 206 209 211 210 211 213
326 322 319 318 308 293 292 296 298 288 274 271 275 280 292 297 292 289 283 276 280 285 287 302 290 213 242 261 208 197 199 198 189 181 180 188 199 199 196 198 195 188 182 184 201 206 204 210 181 184 193 198 197 196 197 194 191 202 208 201 201 207 213 208 197 180 160 159 264 178 165 185 195 186 182 187 185 177 178 187 195 201 204 208 210 210 213 216
329 324 316 315 305 287 295 295 270 271 273 275 282 287 294 299 295 296 294 280 277 280 282 298 293 247 255 271 256 206 202 198 189 188 187 185 193 197 194 197 197 186 178 189 214 210 202 213 184 180 190 198 203 204 198 194 201 213 210 189 190 207 221 208 199 193 179 167 168 185 221 207 201 206 204 197 193 189 184 183 188 196 201 206 210 212 215 215
332 328 322 318 304 281 287 291 270 271 279 285 291 296 300 300 297 305 313 300 279 281 296 309 299 278 262 235 213 186 198 202 193 192 193 184 186 188 188 194 199 195 194 208 218 210 200 204 180 176 188 195 200 203 201 203 215 221 216 193 187 204 218 210 198 198 189 181 175 181 231 210 189 202 209 208 208 201 193 193 197 197 198 203 208 212 216 216
341 337 329 315 299 285 279 280 278 277 281 289 298 298 298 298 299 306 312 297 281 284 302 319 312 269 248 232 231 191 214 216 193 191 200 192 191 189 186 192 197 198 207 215 211 205 199 188 173 182 196 198 199 205 207 211 217 217 218 210 194 203 214 214 184 194 194 197 192 183 190 179 172 190 200 205 206 198 195 205 208 199 197 203 209 212 216 218
351 346 336 316 296 284 273 271 273 275 282 293 299 295 292 294 294 295 295 286 284 289 296 320 343 280 235 234 269 266 289 268 199 193 206 199 194 192 186 189 192 193 203 211 203 199 196 181 175 186 199 196 194 204 209 209 214 216 217 216 200 201 213 220 215 197 196 193 182 173 173 153 154 178 193 196 197 196 198 207 209 202 200 206 214 215 218 218
356 350 346 334 316 297 279 275 279 282 289 294 293 292 291 289 287 284 281 276 267 276 284 289 319 305 258 255 283 259 270 300 212 196 206 201 191 188 186 186 187 191 201 210 202 196 199 191 176 174 175 181 185 195 204 206 216 223 215 208 203 201 211 220 225 214 198 186 174 160 157 161 153 164 182 186 190 194 196 203 211 211 209 211 216 218 222 221
2 355 350 342 330 318 302 294 295 295 298 299 294 293 289 282 279 273 270 264 243 239 256 256 264 279 253 244 271 264 247 271 235 210 207 196 183 182 187 185 184 191 200 203 199 196 198 195 184 176 163 180 192 196 199 204 213 224 211 203 206 212 216 218 218 215 197 185 185 173 131 159 158 165 178 181 185 190 191 199 210 218 221 224 223 223 227 226
7 0 352 344 334 324 316 314 312 307 310 312 302 298 295 290 283 266 259 256 249 239 235 229 222 226 221 215 258 277 239 229 233 219 206 191 180 178 185 184 184 189 196 200 202 201 199 193 198 204 199 200 207 204 198 203 212 218 208 205 214 224 228 221 215 210 190 179 196 203 150 161 166 173 177 177 182 187 188 193 204 214 221 226 230 232 235 234
10 6 359 351 342 335 333 334 330 319 316 311 301 298 302 301 288 264 253 247 243 244 241 228 201 196 202 200 259 280 216 211 220 205 198 191 180 175 182 186 187 184 188 199 200 198 202 203 206 212 205 195 200 200 197 204 213 217 211 210 218 223 226 225 222 212 194 185 182 164 160 164 167 173 180 182 187 190 190 194 204 213 217 223 231 233 234 235
8 7 7 360 351 349 350 351 351 343 327 305 296 295 291 286 271 239 210 220 212 195 223 217 192 189 186 169 309 283 220 248 245 198 191 188 178 175 181 188 192 189 192 199 191 188 209 213 211 217 215 196 195 204 207 204 210 216 213 212 213 214 220 226 229 222 207 203 165 138 154 165 162 171 187 192 194 193 193 200 210 216 220 224 229 229 227 229
8 6 9 8 2 2 5 8 7 4 346 309 307 304 284 269 227 164 135 147 195 178 174 184 183 183 173 164 299 279 248 303 249 181 181 181 180 179 176 185 196 202 201 197 186 187 209 206 208 223 227 223 217 221 215 201 201 208 209 213 211 207 216 225 228 230 221 212 195 165 160 165 161 169 181 184 191 195 194 203 213 220 226 226 224 223 222 225
8 5 7 11 12 13 15 17 16 16 11 350 346 343 317 241 152 144 139 150 177 173 164 167 169 174 176 209 252 247 259 300 197 177 180 184 190 190 171 182 197 201 195 190 185 191 201 199 208 215 230 248 246 244 220 196 194 200 204 211 213 203 211 222 225 228 224 208 198 188 176 170 169 177 178 172 181 192 196 205 214 222 232 227 221 223 224 230
7 5 5 8 13 16 17 18 18 16 11 358 351 9 25 80 117 120 122 143 173 175 164 161 169 184 191 184 186 190 229 237 195 187 194 193 189 181 159 178 193 188 183 185 186 193 199 201 210 213 244 267 247 257 300 193 187 194 200 208 215 206 206 218 223 225 223 199 176 168 169 176 180 189 191 185 191 204 209 212 216 223 230 228 228 233 234 239
7 6 8 9 10 15 18 18 16 13 12 3 357 42 75 82 94 94 98 186 192 182 170 170 184 196 199 193 185 160 164 213 207 191 193 193 185 175 156 174 189 183 178 179 184 196 207 208 210 221 256 261 219 237 315 191 170 190 201 206 215 210 200 208 218 222 222 211 186 179 181 186 190 193 196 195 202 213 215 215 221 224 223 226 234 237 237 242
Height
3070 3069 3069 3068 3068 3067 3067 3067 3066 3066 3066 3066 3066 3066 3067 3067 3067 3068 3068 3069 3071 3072 3074 3076 3078 3078 3080 3081 3083 3085 3087 3088 3090 3090 3092 3099 3104 3104 3107 3110 3112 3115 3119 3121 3124 3126 3130 3134 3137 3140 3142 3143 3144 3147 3150 3152 3154 3154 3154 3153 3151 3152 3154 3157 3160 3161 3162 3163 3164 3164 3164 3163 3164 3164 3163 3161 3159 3160 3159 3157 3157 3159 3161 3162 3161 3161 3162 3162
3068 3067 3066 3066 3065 3065 3064 3064 3064 3063 3063 3063 3063 3063 3064 3064 3064 3065 3065 3066 3067 3068 3070 3073 3074 3075 3076 3077 3079 3081 3083 3084 3085 3086 3090 3096 3099 3099 3102 3106 3110 3112 3115 3118 3120 3123 3127 3131 3134 3136 3137 3139 3140 3144 3146 3148 3150 3149 3149 3148 3146 3148 3152 3155 3157 3158 3161 3162 3162 3162 3162 3162 3162 3162 3161 3160 3158 3158 3156 3156 3157 3158 3161 3162 3160 3160 3161 3162
3066 3065 3064 3063 3063 3062 3061 3061 3061 3060 3060 3060 3060 3060 3061 3061 3061 3062 3062 3063 3064 3065 3066 3068 3071 3072 3073 3074 3075 3077 3079 3081 3082 3084 3089 3092 3094 3095 3098 3102 3106 3109 3111 3114 3117 3120 3123 3127 3130 3132 3134 3135 3137 3140 3142 3144 3145 3145 3146 3144 3142 3147 3151 3152 3154 3156 3158 3159 3159 3160 3159 3159 3160 3160 3160 3160 3158 3155 3152 3154 3157 3158 3160 3161 3160 3159 3160 3161
3064 3063 3062 3061 3060 3060 3059 3058 3058 3058 3057 3057 3057 3057 3057 3058 3058 3059 3059 3060 3061 3062 3063 3065 3066 3068 3069 3070 3072 3074 3076 3077 3079 3082 3086 3088 3089 3091 3094 3098 3101 3104 3107 3110 3113 3116 3119 3123 3125 3128 3130 3131 3134 3137 3138 3140 3141 3142 3142 3140 3142 3147 3148 3149 3152 3153 3155 3155 3157 3159 3157 3156 3157 3158 3160 3160 3159 3154 3150 3153 3156 3157 3159 3160 3160 3159 3160 3159
3061 3060 3060 3059 3058 3057 3056 3056 3055 3055 3054 3054 3054 3054 3054 3054 3055 3056 3056 3057 3058 3059 3060 3061 3062 3064 3065 3067 3068 3070 3073 3075 3075 3078 3082 3084 3085 3087 3090 3094 3097 3100 3103 3106 3109 3112 3115 3118 3120 3123 3126 3128 3131 3132 3134 3136 3139 3139 3138 3139 3143 3145 3145 3147 3149 3150 3152 3154 3155 3157 3155 3154 3155 3157 3158 3158 3157 3154 3151 3153 3155 3157 3158 3159 3159 3159 3158 3158
3059 3058 3057 3056 3056 3055 3054 3053 3053 3052 3052 3052 3051 3051 3051 3052 3052 3052 3053 3054 3055 3056 3057 3059 3059 3060 3062 3063 3064 3066 3069 3072 3072 3074 3078 3080 3082 3084 3087 3090 3094 3096 3099 3102 3105 3108 3112 3115 3117 3119 3121 3125 3127 3129 3131 3135 3136 3136 3136 3138 3141 3143 3143 3145 3146 3147 3151 3152 3152 3152 3152 3152 3153 3155 3155 3155 3154 3153 3153 3153 3155 3157 3158 3158 3159 3158 3157 3156
3056 3055 3055 3054 3053 3052 3052 3051 3050 3050 3049 3049 3049 3049 3049 3049 3049 3049 3050 3051 3051 3053 3054 3056 3057 3056 3058 3059 3061 3062 3065 3067 3068 3071 3074 3077 3079 3081 3084 3087 3090 3093 3095 3099 3101 3105 3109 3112 3114 3116 3119 3121 3124 3126 3129 3133 3134 3134 3135 3137 3139 3140 3141 3142 3143 3145 3148 3148 3148 3149 3149 3150 3151 3153 3153 3151 3149 3151 3153 3154 3156 3158 3158 3158 3158 3157 3156 3155
3054 3053 3052 3052 3051 3050 3049 3049 3048 3048 3047 3047 3046 3046 3046 3046 3047 3046 3047 3047 3048 3049 3051 3053 3053 3054 3055 3055 3057 3057 3059 3064 3065 3067 3071 3074 3076 3078 3080 3084 3087 3089 3092 3095 3099 3102 3106 3108 3111 3114 3116 3118 3121 3124 3127 3131 3132 3132 3133 3135 3137 3138 3139 3140 3141 3142 3144 3144 3144 3146 3146 3147 3149 3150 3151 3148 3146 3149 3153 3155 3156 3157 3157 3158 3158 3156 3156 3155
3052 3051 3050 3049 3049 3048 3047 3047 3046 3046 3045 3045 3044 3044 3044 3044 3044 3044 3044 3044 3045 3046 3047 3049 3050 3051 3051 3052 3053 3050 3056 3064 3062 3063 3066 3068 3071 3073 3077 3080 3084 3086 3089 3093 3096 3100 3102 3105 3108 3111 3114 3117 3121 3123 3125 3128 3128 3129 3132 3134 3136 3137 3138 3139 3140 3141 3141 3141 3141 3143 3144 3146 3148 3149 3149 3147 3146 3148 3153 3155 3156 3156 3156 3156 3154 3152 3151 3150
3050 3049 3048 3047 3046 3046 3045 3045 3044 3044 3043 3043 3042 3042 3041 3041 3041 3041 3041 3041 3042 3043 3044 3045 3047 3048 3048 3049 3048 3047 3056 3061 3057 3058 3060 3061 3065 3070 3075 3078 3081 3084 3087 3090 3093 3096 3099 3103 3107 3111 3114 3117 3119 3121 3123 3124 3125 3128 3131 3133 3134 3135 3136 3136 3138 3140 3140 3137 3139 3141 3142 3145 3148 3149 3148 3146 3147 3149 3152 3154 3153 3151 3149 3148 3146 3146 3147 3146
3048 3047 3046 3045 3045 3044 3043 3042 3042 3042 3041 3040 3040 3039 3039 3039 3039 3039 3038 3039 3039 3040 3041 3042 3043 3044 3044 3045 3043 3047 3054 3054 3051 3053 3055 3059 3064 3068 3072 3075 3078 3081 3084 3087 3090 3093 3097 3102 3106 3109 3112 3114 3117 3120 3121 3122 3124 3127 3129 3131 3131 3133 3133 3133 3135 3138 3139 3136 3136 3140 3142 3144 3146 3148 3148 3146 3146 3147 3148 3148 3147 3147 3146 3147 3148 3150 3152 3153
3046 3045 3044 3044 3043 3042 3041 3040 3040 3039 3039 3038 3037 3037 3036 3036 3036 3036 3036 3036 3036 3037 3038 3039 3039 3040 3041 3039 3039 3048 3053 3050 3050 3050 3051 3059 3065 3067 3069 3072 3074 3077 3081 3085 3088 3092 3096 3101 3104 3105 3108 3111 3115 3117 3118 3120 3123 3125 3127 3128 3128 3130 3130 3130 3131 3134 3136 3135 3135 3138 3140 3143 3145 3147 3147 3143 3141 3142 3143 3144 3147 3148 3149 3150 3152 3154 3154 3156
3044 3043 3042 3041 3041 3040 3039 3038 3038 3037 3036 3036 3035 3035 3034 3033 3033 3033 3034 3034 3034 3034 3035 3036 3036 3036 3036 3032 3037 3048 3050 3048 3049 3047 3050 3058 3063 3066 3067 3068 3071 3074 3078 3082 3086 3091 3094 3099 3101 3101 3104 3108 3111 3114 3116 3118 3121 3122 3124 3125 3126 3126 3125 3126 3129 3132 3134 3133 3135 3137 3138 3140 3143 3145 3143 3139 3138 3139 3140 3144 3148 3149 3150 3151 3151 3152 3153 3154
3042 3040 3039 3039 3038 3037 3037 3036 3035 3035 3034 3033 3033 3032 3031 3031 3031 3031 3031 3031 3031 3031 3032 3032 3032 3033 3030 3029 3037 3045 3045 3045 3044 3043 3050 3056 3060 3063 3065 3066 3068 3071 3074 3078 3083 3088 3092 3097 3099 3100 3101 3103 3107 3112 3114 3116 3118 3119 3121 3122 3122 3121 3120 3124 3127 3129 3131 3132 3135 3137 3136 3139 3141 3141 3139 3138 3138 3138 3140 3144 3147 3148 3148 3149 3150 3150 3151 3153
3040 3038 3037 3036 3035 3035 3034 3033 3033 3032 3032 3031 3030 3030 3029 3029 3028 3028 3028 3029 3029 3028 3029 3030 3030 3030 3026 3026 3036 3040 3040 3040 3039 3043 3050 3054 3056 3060 3063 3065 3067 3070 3073 3075 3080 3084 3089 3094 3096 3096 3098 3100 3104 3107 3109 3111 3113 3115 3116 3116 3117 3117 3118 3122 3125 3126 3129 3130 3134 3136 3135 3136 3138 3137 3138 3138 3138 3138 3141 3143 3144 3145 3146 3147 3148 3148 3150 3153
3038 3037 3035 3034 3033 3032 3031 3031 3030 3030 3029 3029 3028 3028 3027 3027 3026 3027 3026 3026 3026 3026 3027 3027 3028 3027 3023 3026 3033 3035 3036 3037 3039 3045 3048 3051 3053 3057 3061 3064 3066 3069 3072 3075 3078 3082 3086 3090 3092 3094 3096 3098 3100 3102 3106 3108 3108 3110 3110 3110 3113 3114 3116 3120 3122 3124 3127 3129 3132 3133 3133 3134 3134 3135 3136 3138 3139 3140 3141 3141 3142 3143 3144 3146 3147 3147 3149 3151
3037 3035 3033 3032 3031 3030 3029 3028 3027 3027 3026 3026 3026 3025 3025 3025 3025 3025 3025 3024 3024 3024 3025 3025 3026 3024 3021 3027 3031 3032 3034 3037 3040 3043 3045 3047 3051 3056 3060 3062 3064 3067 3070 3074 3077 3079 3083 3086 3089 3091 3093 3095 3096 3100 3103 3101 3100 3103 3106 3108 3110 3112 3114 3117 3119 3122 3124 3127 3128 3130 3132 3131 3130 3132 3134 3136 3139 3140 3141 3140 3141 3141 3143 3145 3146 3147 3148 3150
3035 3033 3031 3030 3029 3028 3027 3026 3025 3024 3024 3023 3023 3023 3023 3023 3023 3023 3023 3022 3022 3021 3021 3022 3024 3022 3022 3026 3029 3031 3032 3033 3036 3039 3041 3044 3049 3053 3056 3060 3063 3065 3068 3071 3074 3077 3080 3082 3086 3089 3090 3090 3091 3093 3093 3091 3095 3099 3103 3106 3108 3111 3112 3113 3115 3118 3120 3123 3125 3128 3129 3128 3127 3130 3132 3134 3137 3139 3139 3139 3140 3141 3142 3143 3144 3145 3146 3148
3033 3031 3030 3028 3027 3026 3025 3024 3024 3023 3022 3021 3020 3020 3020 3020 3021 3021 3020 3019 3019 3018 3019 3021 3020 3020 3022 3024 3026 3029 3030 3031 3034 3035 3037 3041 3046 3049 3053 3058 3060 3063 3066 3068 3070 3074 3077 3080 3083 3083 3083 3082 3083 3086 3088 3091 3096 3100 3102 3105 3107 3109 3110 3111 3112 3115 3118 3120 3122 3125 3125 3124 3125 3128 3130 3133 3135 3136 3138 3138 3138 3139 3141 3142 3143 3143 3144 3146
3032 3030 3028 3027 3026 3025 3024 3023 3022 3021 3020 3019 3019 3018 3018 3018 3018 3018 3017 3016 3016 3016 3017 3018 3016 3017 3021 3022 3022 3025 3026 3029 3032 3033 3035 3038 3043 3047 3050 3055 3057 3059 3062 3064 3068 3072 3076 3078 3076 3074 3074 3077 3082 3086 3090 3094 3098 3100 3103 3104 3106 3107 3107 3109 3111 3113 3116 3118 3119 3122 3123 3121 3123 3126 3128 3130 3133 3134 3135 3137 3137 3137 3139 3140 3141 3141 3142 3144
3030 3029 3027 3026 3025 3024 3022 3021 3020 3020 3019 3018 3017 3017 3017 3016 3016 3016 3014 3012 3013 3014 3014 3015 3014 3014 3018 3020 3020 3021 3022 3025 3028 3031 3033 3035 3040 3044 3047 3051 3053 3055 3058 3063 3068 3072 3075 3072 3068 3069 3073 3080 3084 3087 3091 3094 3096 3098 3101 3102 3104 3105 3105 3107 3108 3109 3114 3116 3117 3119 3120 3120 3122 3124 3126 3128 3130 3132 3133 3134 3135 3136 3137 3138 3139 3140 3141 3143
3028 3027 3025 3024 3023 3022 3021 3020 3019 3018 3017 3016 3015 3015 3015 3015 3014 3014 3012 3009 3010 3012 3011 3012 3012 3012 3016 3018 3017 3018 3020 3022 3025 3029 3031 3034 3036 3040 3044 3047 3049 3051 3057 3062 3066 3069 3069 3063 3061 3069 3076 3082 3086 3088 3090 3092 3093 3095 3098 3100 3101 3102 3104 3106 3105 3106 3111 3113 3114 3116 3116 3118 3121 3123 3125 3126 3128 3130 3131 3132 3133 3134 3135 3136 3137 3138 3140 3143
3026 3024 3023 3021 3020 3020 3019 3018 3017 3016 3015 3015 3014 3014 3013 3013 3012 3012 3011 3007 3006 3008 3009 3009 3010 3010 3013 3016 3016 3016 3016 3018 3022 3026 3030 3033 3034 3037 3042 3045 3046 3051 3056 3058 3059 3061 3058 3055 3061 3072 3077 3081 3085 3087 3089 3091 3091 3091 3093 3096 3097 3099 3102 3102 3101 3104 3108 3108 3109 3112 3113 3115 3119 3122 3123 3124 3126 3128 3129 3131 3131 3132 3133 3134 3136 3137 3139 3141
3023 3022 3020 3019 3019 3018 3017 3017 3015 3014 3014 3013 3013 3012 3011 3011 3011 3010 3009 3006 3002 3003 3006 3006 3007 3008 3010 3014 3016 3014 3014 3016 3019 3023 3027 3030 3033 3036 3040 3044 3046 3049 3052 3054 3056 3056 3054 3056 3065 3073 3077 3080 3083 3085 3087 3088 3088 3088 3089 3091 3094 3096 3099 3099 3099 3102 3107 3106 3105 3107 3111 3115 3117 3119 3120 3122 3124 3126 3127 3129 3129 3129 3130 3133 3135 3137 3139 3141
3021 3020 3019 3018 3018 3016 3016 3015 3014 3013 3012 3012 3012 3011 3011 3010 3010 3009 3008 3006 3000 2999 3003 3003 3002 3003 3007 3012 3012 3012 3013 3013 3013 3019 3023 3027 3032 3035 3038 3042 3045 3046 3049 3053 3055 3056 3057 3062 3068 3072 3075 3078 3080 3081 3083 3084 3086 3086 3085 3088 3090 3093 3096 3098 3099 3101 3103 3105 3104 3104 3110 3116 3116 3117 3119 3120 3122 3124 3125 3127 3127 3127 3129 3131 3134 3136 3139 3140
3020 3019 3018 3017 3016 3015 3015 3013 3012 3011 3010 3010 3010 3010 3010 3009 3009 3009 3008 3006 2999 2994 2997 2998 2998 2999 3002 3007 3008 3011 3013 3009 3011 3016 3019 3023 3029 3034 3037 3040 3043 3044 3048 3053 3056 3056 3058 3064 3067 3069 3072 3075 3077 3078 3079 3083 3085 3083 3082 3086 3089 3090 3093 3095 3097 3100 3099 3100 3102 3102 3105 3112 3115 3116 3117 3118 3120 3122 3123 3125 3126 3126 3128 3129 3132 3137 3140 3140
3020 3018 3017 3016 3015 3013 3013 3012 3011 3010 3009 3009 3008 3009 3009 3008 3009 3009 3008 3008 2998 2989 2989 2992 2995 2996 2999 3003 3006 3008 3008 3007 3012 3015 3015 3018 3025 3032 3035 3037 3040 3043 3047 3052 3053 3052 3057 3062 3064 3066 3069 3072 3073 3073 3076 3080 3082 3080 3081 3085 3087 3088 3090 3091 3095 3099 3098 3098 3101 3101 3101 3106 3110 3112 3114 3116 3117 3119 3121 3123 3124 3125 3126 3129 3132 3135 3138 3140
3019 3018 3017 3016 3014 3012 3011 3011 3010 3009 3008 3008 3007 3007 3007 3007 3008 3008 3009 3009 2997 2987 2987 2988 2992 2995 2998 3002 3003 3003 3005 3008 3012 3014 3015 3018 3022 3028 3032 3034 3038 3042 3045 3049 3048 3049 3055 3058 3060 3063 3066 3067 3068 3070 3074 3079 3079 3079 3082 3085 3086 3088 3089 3090 3092 3096 3097 3097 3097 3098 3098 3101 3105 3107 3111 3114 3114 3116 3119 3120 3122 3123 3125 3128 3130 3133 3135 3137
3019 3018 3017 3015 3013 3011 3010 3010 3009 3008 3007 3007 3006 3006 3006 3006 3007 3007 3010 3007 2994 2989 2989 2989 2991 2995 2997 2999 3000 3001 3006 3010 3011 3013 3017 3018 3020 3025 3029 3033 3039 3043 3045 3047 3048 3051 3054 3056 3059 3062 3063 3064 3067 3070 3074 3076 3078 3080 3084 3084 3085 3087 3087 3088 3090 3092 3094 3093 3091 3093 3094 3098 3103 3104 3107 3111 3112 3113 3116 3118 3120 3121 3124 3127 3129 3131 3132 3135
3019 3018 3016 3015 3013 3011 3010 3009 3009 3008 3007 3006 3006 3005 3005 3006 3006 3007 3009 3003 2992 2990 2991 2990 2993 2996 2996 2997 2998 3001 3005 3008 3010 3014 3017 3018 3020 3024 3028 3033 3038 3042 3045 3046 3048 3051 3054 3056 3059 3060 3061 3063 3067 3071 3072 3074 3077 3081 3083 3083 3084 3085 3086 3086 3088 3089 3091 3090 3087 3088 3090 3093 3100 3102 3102 3105 3108 3110 3113 3115 3117 3118 3122 3125 3127 3129 3130 3133
3018 3017 3016 3014 3012 3011 3009 3009 3008 3007 3007 3006 3005 3005 3004 3005 3006 3006 3004 2997 2992 2993 2992 2992 2996 2998 2998 2998 2998 3000 3003 3006 3009 3013 3016 3017 3020 3022 3026 3030 3034 3038 3042 3043 3046 3049 3052 3054 3055 3056 3060 3063 3066 3070 3071 3073 3076 3079 3081 3082 3082 3082 3083 3085 3086 3086 3088 3088 3086 3086 3088 3091 3096 3099 3099 3102 3105 3108 3109 3111 3113 3115 3118 3121 3124 3127 3128 3130
3018 3016 3015 3013 3012 3010 3009 3009 3008 3007 3007 3006 3005 3005 3004 3005 3006 3003 3000 2995 2995 2995 2993 2993 2994 2996 2999 3000 2999 2999 3001 3004 3006 3011 3014 3015 3017 3019 3021 3025 3028 3032 3035 3038 3042 3045 3048 3049 3051 3054 3058 3061 3064 3066 3069 3071 3073 3076 3077 3078 3080 3080 3081 3083 3083 3083 3085 3085 3084 3085 3087 3090 3091 3094 3096 3100 3102 3104 3106 3109 3111 3113 3115 3119 3122 3124 3127 3128
3016 3015 3014 3012 3011 3009 3009 3008 3008 3007 3006 3006 3005 3005 3005 3006 3004 3000 2999 2998 2997 2995 2995 2995 2993 2993 2995 2998 3000 3000 3001 3003 3005 3009 3013 3014 3017 3019 3020 3022 3025 3028 3030 3034 3038 3041 3044 3047 3049 3052 3054 3057 3060 3061 3064 3065 3067 3071 3071 3072 3076 3077 3078 3081 3080 3081 3084 3084 3084 3084 3085 3087 3089 3091 3093 3097 3099 3101 3104 3107 3110 3112 3114 3117 3120 3123 3125 3126
3015 3014 3013 3011 3010 3009 3008 3008 3007 3007 3006 3005 3005 3005 3005 3005 3001 2999 3000 3000 2998 2996 2996 2997 2995 2993 2993 2995 2998 2999 3001 3002 3005 3009 3013 3014 3017 3018 3019 3022 3025 3028 3031 3034 3037 3038 3041 3043 3044 3047 3049 3052 3056 3057 3060 3062 3065 3069 3069 3070 3073 3073 3074 3077 3078 3080 3082 3084 3084 3084 3085 3086 3087 3089 3092 3095 3098 3100 3103 3106 3109 3112 3114 3117 3119 3120 3122 3124
3014 3013 3012 3011 3009 3009 3008 3007 3006 3006 3006 3005 3005 3005 3004 3002 2999 2999 3000 2999 2998 2997 2997 2997 2995 2994 2993 2994 2997 2998 3000 3002 3004 3008 3012 3013 3015 3016 3017 3019 3022 3026 3029 3032 3035 3037 3039 3040 3041 3045 3048 3050 3053 3055 3059 3063 3064 3067 3068 3069 3070 3071 3073 3074 3076 3078 3080 3082 3083 3083 3084 3085 3086 3089 3092 3095 3097 3099 3102 3106 3108 3111 3113 3115 3116 3118 3120 3123
3013 3012 3011 3010 3009 3008 3008 3007 3006 3006 3006 3005 3005 3004 3002 3001 3000 3000 2999 2999 2998 2997 2997 2995 2993 2994 2994 2994 2996 2998 3000 3002 3004 3007 3010 3013 3015 3016 3017 3018 3020 3023 3026 3029 3033 3034 3037 3039 3041 3044 3047 3050 3052 3055 3058 3061 3062 3064 3065 3065 3067 3072 3074 3074 3075 3077 3079 3082 3082 3081 3083 3085 3086 3090 3094 3096 3097 3099 3101 3104 3107 3109 3110 3111 3113 3115 3118 3120
3012 3011 3010 3009 3008 3008 3007 3006 3006 3006 3005 3005 3004 3003 3001 3000 3000 2999 2999 2999 2998 2997 2997 2995 2993 2994 2995 2994 2996 2998 2999 3002 3004 3006 3009 3012 3014 3015 3017 3018 3020 3022 3024 3028 3032 3033 3035 3037 3039 3042 3044 3048 3052 3055 3056 3058 3061 3062 3062 3064 3069 3073 3073 3073 3075 3076 3079 3082 3081 3079 3082 3084 3085 3090 3096 3097 3097 3099 3101 3103 3105 3107 3108 3109 3111 3114 3116 3118
3010 3009 3009 3008 3007 3006 3006 3006 3005 3005 3005 3004 3003 3001 3000 3000 2999 2999 2999 2998 2997 2996 2996 2996 2994 2993 2994 2995 2997 2998 2999 3001 3003 3005 3008 3010 3012 3013 3016 3018 3020 3022 3023 3026 3031 3032 3034 3036 3037 3039 3043 3045 3049 3052 3053 3056 3058 3060 3062 3065 3068 3069 3069 3070 3072 3073 3077 3081 3080 3079 3081 3082 3082 3086 3091 3094 3095 3098 3100 3102 3103 3104 3106 3107 3109 3111 3114 3116
3009 3007 3007 3007 3006 3005 3005 3004 3004 3004 3003 3002 3001 3000 3000 2999 2998 2998 2997 2997 2996 2995 2995 2996 2995 2994 2994 2995 2997 2999 3000 3001 3002 3005 3006 3008 3010 3012 3015 3018 3018 3020 3022 3025 3029 3032 3034 3036 3035 3038 3042 3044 3046 3047 3049 3052 3056 3058 3061 3064 3065 3066 3067 3069 3070 3071 3074 3079 3081 3081 3080 3081 3081 3081 3084 3088 3091 3094 3097 3099 3101 3102 3104 3105 3107 3109 3111 3113
3008 3006 3006 3005 3005 3005 3004 3003 3003 3003 3002 3001 3000 3000 2999 2998 2997 2996 2995 2995 2996 2995 2995 2995 2996 2996 2995 2995 2995 2998 3001 3002 3002 3004 3005 3007 3009 3011 3015 3016 3016 3019 3022 3025 3029 3031 3034 3035 3035 3037 3041 3044 3045 3045 3046 3050 3054 3056 3058 3060 3062 3064 3066 3067 3068 3069 3071 3075 3079 3080 3080 3078 3078 3078 3079 3083 3087 3090 3094 3096 3098 3100 3102 3103 3105 3107 3109 3112
3007 3006 3005 3004 3004 3004 3003 3002 3002 3001 3000 2999 2999 2999 2998 2997 2995 2994 2994 2994 2995 2994 2994 2995 2995 2996 2995 2995 2995 2996 3000 3002 3003 3004 3005 3006 3008 3009 3012 3014 3015 3019 3023 3025 3028 3030 3032 3034 3036 3038 3040 3042 3043 3045 3047 3051 3054 3055 3057 3058 3060 3062 3064 3066 3068 3068 3070 3072 3074 3077 3079 3077 3077 3077 3077 3080 3084 3087 3091 3094 3096 3098 3100 3101 3103 3105 3107 3110
3007 3005 3004 3003 3003 3003 3002 3001 3000 3000 2998 2998 2998 2998 2997 2996 2994 2994 2994 2994 2994 2994 2994 2994 2994 2995 2994 2994 2994 2995 2998 3002 3002 3003 3005 3006 3007 3008 3010 3013 3015 3018 3022 3023 3026 3029 3031 3033 3037 3040 3040 3041 3044 3047 3048 3051 3054 3056 3056 3058 3060 3062 3063 3064 3066 3067 3068 3070 3071 3074 3077 3076 3076 3077 3076 3077 3081 3085 3089 3093 3095 3097 3099 3099 3101 3104 3106 3109
3007 3005 3004 3003 3002 3001 3001 3000 2999 2999 2997 2997 2997 2997 2996 2996 2994 2993 2994 2993 2993 2993 2994 2994 2994 2995 2994 2995 2996 2995 2997 3000 3001 3003 3004 3005 3007 3008 3010 3012 3015 3018 3021 3023 3026 3029 3031 3032 3035 3039 3041 3043 3046 3049 3050 3051 3053 3054 3055 3057 3059 3060 3061 3063 3065 3067 3067 3068 3069 3072 3075 3076 3076 3077 3078 3078 3081 3085 3089 3092 3094 3096 3097 3098 3100 3102 3104 3107
3007 3005 3003 3002 3001 3000 2999 2998 2997 2997 2996 2996 2996 2995 2995 2994 2992 2992 2993 2993 2993 2994 2994 2994 2995 2995 2996 2996 2996 2996 2997 3000 3001 3002 3004 3005 3006 3008 3010 3012 3014 3017 3020 3023 3025 3027 3030 3032 3033 3036 3039 3042 3045 3047 3047 3048 3049 3050 3052 3055 3056 3058 3061 3063 3065 3066 3066 3066 3067 3070 3073 3075 3075 3077 3079 3081 3082 3085 3088 3091 3093 3094 3095 3096 3098 3100 3102 3105
3006 3004 3002 3001 3000 2998 2997 2996 2995 2995 2995 2995 2994 2993 2993 2992 2991 2991 2991 2992 2993 2993 2994 2994 2995 2996 2996 2997 2996 2995 2997 3000 3001 3002 3003 3005 3007 3008 3010 3012 3014 3017 3021 3024 3026 3027 3030 3032 3033 3034 3036 3039 3041 3041 3041 3042 3045 3049 3051 3053 3054 3056 3059 3061 3062 3064 3065 3064 3065 3068 3071 3074 3076 3077 3078 3080 3081 3083 3086 3089 3091 3092 3093 3094 3096 3099 3101 3103
3006 3004 3002 3000 2999 2997 2996 2995 2995 2994 2994 2994 2993 2991 2991 2990 2990 2990 2989 2990 2992 2992 2993 2993 2994 2995 2996 2997 2997 2996 2996 2997 2999 3002 3003 3004 3007 3008 3009 3012 3014 3017 3021 3024 3026 3028 3030 3032 3034 3035 3036 3038 3040 3040 3041 3044 3046 3048 3050 3052 3054 3055 3057 3060 3061 3062 3064 3064 3065 3067 3069 3073 3076 3077 3078 3079 3080 3082 3085 3088 3090 3091 3092 3093 3095 3097 3100 3101
3008 3005 3003 3001 2999 2997 2995 2994 2993 2993 2992 2992 2991 2990 2990 2989 2988 2988 2988 2989 2990 2992 2993 2993 2994 2996 2997 2998 2999 2998 2997 2997 2998 3001 3003 3004 3007 3009 3010 3013 3015 3017 3022 3025 3026 3028 3030 3032 3033 3035 3036 3038 3040 3042 3044 3046 3046 3048 3050 3052 3054 3054 3055 3057 3059 3061 3063 3064 3065 3067 3068 3071 3075 3077 3078 3080 3080 3082 3084 3087 3088 3090 3091 3093 3095 3096 3098 3100
3010 3007 3005 3002 3000 2997 2995 2994 2992 2991 2991 2991 2990 2989 2989 2988 2987 2987 2988 2989 2990 2991 2993 2994 2995 2997 2998 3000 3000 2999 2999 2999 2999 3001 3003 3004 3006 3009 3011 3013 3015 3018 3022 3024 3026 3028 3030 3031 3032 3034 3034 3036 3039 3042 3044 3045 3047 3048 3050 3051 3053 3054 3054 3056 3059 3061 3063 3064 3065 3068 3069 3070 3073 3075 3077 3078 3080 3081 3084 3085 3087 3089 3090 3092 3093 3095 3096 3098
3011 3008 3005 3003 3000 2997 2995 2993 2992 2991 2991 2991 2989 2988 2988 2987 2987 2987 2987 2989 2991 2992 2993 2995 2996 2998 3000 3001 3002 3000 3000 3001 3000 3001 3004 3005 3005 3007 3010 3013 3016 3019 3022 3024 3026 3028 3029 3030 3032 3033 3034 3035 3037 3040 3042 3043 3045 3048 3049 3050 3052 3054 3054 3056 3059 3061 3063 3064 3065 3068 3070 3071 3073 3074 3075 3077 3079 3081 3084 3086 3087 3088 3089 3090 3092 3093 3095 3097
3013 3009 3006 3004 3000 2997 2995 2993 2992 2991 2991 2991 2990 2989 2988 2987 2987 2988 2988 2989 2992 2993 2994 2996 2998 2999 3000 3001 3001 3000 3001 3003 3002 3003 3004 3005 3006 3007 3009 3012 3015 3019 3021 3023 3026 3029 3030 3030 3032 3033 3034 3035 3036 3038 3039 3040 3043 3045 3048 3049 3051 3053 3054 3055 3058 3060 3062 3063 3063 3066 3070 3072 3073 3074 3075 3077 3079 3080 3083 3085 3087 3087 3088 3089 3091 3092 3094 3096
3016 3013 3009 3005 3002 2999 2997 2994 2993 2993 2992 2992 2992 2990 2990 2989 2989 2990 2990 2991 2994 2995 2996 2998 2999 3000 3000 3000 3000 3000 3002 3004 3004 3004 3005 3005 3007 3008 3010 3013 3017 3019 3021 3023 3026 3029 3030 3030 3032 3034 3034 3034 3034 3035 3037 3038 3040 3043 3046 3048 3049 3051 3053 3054 3056 3059 3061 3062 3063 3065 3069 3071 3073 3074 3075 3076 3078 3080 3081 3083 3085 3086 3087 3088 3090 3091 3093 3095
3017 3015 3012 3008 3005 3002 2998 2995 2994 2993 2992 2992 2993 2992 2992 2992 2992 2993 2993 2994 2995 2996 2997 2999 2999 3000 3000 3000 3001 3001 3003 3005 3004 3004 3005 3006 3008 3009 3011 3014 3017 3019 3021 3023 3026 3029 3030 3031 3032 3034 3034 3032 3033 3035 3036 3036 3038 3041 3044 3046 3048 3050 3051 3053 3055 3057 3059 3061 3062 3064 3067 3069 3071 3072 3074 3075 3077 3079 3080 3082 3084 3085 3086 3087 3089 3091 3092 3093